St. Francis, KS

9:40 AM CDT on June 25, 2017 (GMT -0500)
Cheyenne County Municipal

Weather History for KSYF - July, 2013

Change the Weather History Date:

Sunday, July 21, 2013

  Actual Average Record
Temperature  
Mean Temperature 77 °F -  
Max Temperature 93 °F 88 °F 99 °F (2016)
Min Temperature 61 °F 62 °F 60 °F (2015)
Cooling Degree Days 12    
Growing Degree Days 27 (Base 50)    
Moisture  
Dew Point 58 °F    
Average Humidity 58    
Maximum Humidity 86    
Minimum Humidity 22    
Precipitation  
Precipitation 0.00 in - - ()
Sea Level Pressure  
Sea Level Pressure 29.94 in    
Wind  
Wind Speed 12 mph (ESE)    
Max Wind Speed 23 mph    
Max Gust Speed 30 mph    
Visibility 10 miles    
Events      
Averages and records for this station are not official NWS values.
T = Trace of Precipitation, MM = Missing Value Source: NWS Daily Summary

Daily Weather History Graph

Daily Weather History Graph

Search for Another Location

Airport or City:

Trip Planner

Search our weather history database for the weather conditions in past years. The results will help you decide how hot, cold, wet, or windy it might be!

Date:

Astronomy

Jul. 21, 2013 Rise Set
Actual Time 6:36 AM CDT 9:10 PM CDT
Civil Twilight 6:05 AM CDT 9:41 PM CDT
Nautical Twilight 5:26 AM CDT 10:19 PM CDT
Astronomical Twilight 4:43 AM CDT 11:02 PM CDT
Moon 8:10 PM CDT (7/21) 5:24 AM CDT (7/21)
Length of Visible Light 15h 35m
Length of Day
14h 33m
Waxing Gibbous, 98% of the Moon is Illuminated
Jul 21
Waxing Gibbous
Jul 22
Full
Jul 29
Last Quarter
Aug 6
New
Aug 14
First Quarter

Hourly Weather History & Observations

Time (CDT) Temp. Heat Index Dew Point Humidity Pressure Visibility Wind Dir Wind Speed Gust Speed Precip Events Conditions
12:15 AM 75.4 °F - 65.1 °F 70% 29.98 in 10.0 mi ESE 11.5 mph - N/A   Clear
12:35 AM 74.5 °F - 65.8 °F 74% 29.99 in 10.0 mi ESE 8.1 mph - N/A   Clear
12:55 AM 73.4 °F - 66.0 °F 78% 30.01 in 10.0 mi NE 23.0 mph 27.6 mph N/A   Clear
1:15 AM 69.8 °F - 57.9 °F 66% 30.01 in 10.0 mi ENE 23.0 mph 29.9 mph N/A   Mostly Cloudy
1:35 AM 68.0 °F - 57.0 °F 68% 30.00 in 10.0 mi East 13.8 mph 26.5 mph N/A   Mostly Cloudy
1:55 AM 66.9 °F - 58.3 °F 74% 29.99 in 10.0 mi East 17.3 mph 24.2 mph N/A   Scattered Clouds
2:15 AM 65.7 °F - 57.7 °F 76% 29.99 in 10.0 mi East 13.8 mph - N/A   Scattered Clouds
2:35 AM 64.8 °F - 58.1 °F 79% 29.99 in 10.0 mi East 16.1 mph 27.6 mph N/A   Scattered Clouds
2:55 AM 63.9 °F - 58.1 °F 81% 29.99 in 10.0 mi East 15.0 mph 20.7 mph N/A   Clear
3:15 AM 64.0 °F - 57.9 °F 80% 29.99 in 10.0 mi ESE 12.7 mph - N/A   Mostly Cloudy
3:35 AM 63.5 °F - 57.4 °F 80% 29.99 in 10.0 mi East 11.5 mph - N/A   Mostly Cloudy
3:55 AM 63.1 °F - 57.4 °F 81% 29.98 in 10.0 mi ESE 9.2 mph - N/A   Clear
4:15 AM 62.6 °F - 57.6 °F 84% 29.98 in 10.0 mi ESE 9.2 mph - N/A   Clear
4:35 AM 62.2 °F - 57.6 °F 85% 29.97 in 10.0 mi SE 8.1 mph - N/A   Clear
4:55 AM 62.1 °F - 57.7 °F 86% 29.96 in 10.0 mi SE 10.4 mph - N/A   Clear
5:15 AM 62.4 °F - 57.6 °F 84% 29.95 in 10.0 mi SE 13.8 mph - N/A   Clear
5:35 AM 63.0 °F - 56.8 °F 80% 29.94 in 10.0 mi SE 15.0 mph - N/A   Clear
5:55 AM 62.8 °F - 56.5 °F 80% 29.94 in 10.0 mi SSE 9.2 mph - N/A   Clear
6:15 AM 61.9 °F - 56.3 °F 82% 29.94 in 10.0 mi South 6.9 mph - N/A   Clear
6:35 AM 61.9 °F - 56.5 °F 82% 29.96 in 10.0 mi Calm Calm - N/A   Clear
6:55 AM 61.7 °F - 56.5 °F 83% 29.97 in 10.0 mi Calm Calm - N/A   Clear
7:15 AM 61.9 °F - 57.2 °F 85% 29.98 in 10.0 mi Calm Calm - N/A   Clear
7:35 AM 63.5 °F - 57.6 °F 81% 30.00 in 10.0 mi North 5.8 mph - N/A   Clear
7:55 AM 64.4 °F - 57.7 °F 79% 30.02 in 10.0 mi NE 6.9 mph - N/A   Mostly Cloudy
8:15 AM 65.7 °F - 57.7 °F 76% 30.02 in 10.0 mi NE 8.1 mph - N/A   Overcast
8:35 AM 65.8 °F - 57.2 °F 74% 30.02 in 10.0 mi NNE 11.5 mph - N/A   Overcast
8:55 AM 65.7 °F - 57.0 °F 74% 30.03 in 10.0 mi NE 11.5 mph - N/A   Overcast
9:15 AM 67.3 °F - 56.7 °F 69% 30.03 in 10.0 mi ENE 13.8 mph - N/A   Overcast
9:35 AM 68.0 °F - 56.8 °F 67% 30.04 in 10.0 mi NE 11.5 mph - N/A   Overcast
9:55 AM 68.9 °F - 56.8 °F 65% 30.03 in 10.0 mi ENE 10.4 mph - N/A   Overcast
10:15 AM 69.8 °F - 57.6 °F 65% 30.02 in 10.0 mi East 9.2 mph - N/A   Overcast
10:35 AM 70.7 °F - 58.6 °F 66% 30.00 in 10.0 mi ESE 9.2 mph - N/A   Overcast
10:55 AM 72.0 °F - 59.4 °F 64% 29.99 in 10.0 mi East 5.8 mph - N/A   Overcast
11:15 AM 74.1 °F - 59.5 °F 60% 29.99 in 10.0 mi ESE 4.6 mph - N/A   Scattered Clouds
11:35 AM 76.3 °F - 59.7 °F 56% 29.99 in 10.0 mi SE 5.8 mph - N/A   Clear
11:55 AM 77.5 °F - 59.7 °F 54% 29.99 in 10.0 mi ESE 9.2 mph - N/A   Clear
12:15 PM 79.0 °F - 59.9 °F 52% 29.98 in 10.0 mi ESE 8.1 mph - N/A   Clear
1:15 PM 82.6 °F 82.8 °F 60.1 °F 46% 29.96 in 10.0 mi East 8.1 mph - N/A   Clear
1:35 PM 84.9 °F 84.8 °F 60.1 °F 43% 29.95 in 10.0 mi SSE 8.1 mph - N/A   Clear
1:55 PM 86.2 °F 85.6 °F 59.5 °F 40% 29.94 in 10.0 mi SE 8.1 mph - N/A   Clear
2:15 PM 87.6 °F 86.9 °F 59.2 °F 38% 29.93 in 10.0 mi SE 8.1 mph 16.1 mph N/A   Clear
2:35 PM 88.7 °F 87.5 °F 58.1 °F 35% 29.92 in 10.0 mi South 12.7 mph 16.1 mph N/A   Clear
2:55 PM 89.2 °F 87.9 °F 57.4 °F 34% 29.92 in 10.0 mi SE 11.5 mph 17.3 mph N/A   Clear
3:15 PM 90.0 °F 87.9 °F 54.5 °F 30% 29.91 in 10.0 mi SSE 11.5 mph - N/A   Clear
3:35 PM 91.6 °F 89.1 °F 53.2 °F 27% 29.91 in 10.0 mi ESE 10.4 mph 16.1 mph N/A   Clear
3:55 PM 92.1 °F 90.0 °F 54.7 °F 28% 29.90 in 10.0 mi SE 11.5 mph 17.3 mph N/A   Clear
4:15 PM 93.0 °F - 51.8 °F 25% 29.90 in 10.0 mi South 8.1 mph 17.3 mph N/A   Clear
4:35 PM 93.2 °F - 48.9 °F 22% 29.89 in 10.0 mi SSE 10.4 mph 16.1 mph N/A   Clear
4:55 PM 92.7 °F - 51.3 °F 24% 29.89 in 10.0 mi SSE 12.7 mph 17.3 mph N/A   Clear
5:15 PM 93.2 °F - 50.9 °F 24% 29.89 in 10.0 mi SSW 13.8 mph 18.4 mph N/A   Clear
5:35 PM 93.2 °F - 50.5 °F 23% 29.88 in 10.0 mi SSE 12.7 mph 16.1 mph N/A   Clear
5:55 PM 93.0 °F - 51.4 °F 24% 29.88 in 10.0 mi South 10.4 mph - N/A   Clear
6:15 PM 92.3 °F 89.7 °F 53.1 °F 26% 29.88 in 10.0 mi SE 9.2 mph - N/A   Clear
6:35 PM 91.4 °F 89.4 °F 54.5 °F 29% 29.87 in 10.0 mi SSE 13.8 mph - N/A   Clear
6:55 PM 91.2 °F 88.9 °F 54.0 °F 28% 29.86 in 10.0 mi South 10.4 mph - N/A   Clear
7:15 PM 90.7 °F 88.5 °F 54.7 °F 29% 29.86 in 10.0 mi SSE 11.5 mph 17.3 mph N/A   Clear
7:35 PM 90.1 °F 88.3 °F 56.1 °F 31% 29.85 in 10.0 mi SSE 11.5 mph - N/A   Clear
7:55 PM 89.1 °F 87.7 °F 57.6 °F 34% 29.85 in 10.0 mi SSE 12.7 mph 18.4 mph N/A   Clear
8:15 PM 87.6 °F 86.9 °F 59.0 °F 38% 29.85 in 10.0 mi SSE 15.0 mph 19.6 mph N/A   Clear
8:35 PM 86.0 °F 85.9 °F 60.3 °F 42% 29.85 in 10.0 mi SSE 12.7 mph 17.3 mph N/A   Clear
8:55 PM 84.0 °F 84.5 °F 61.7 °F 47% 29.86 in 10.0 mi SE 9.2 mph - N/A   Clear
9:15 PM 81.7 °F 82.9 °F 62.8 °F 53% 29.86 in 10.0 mi SE 8.1 mph - N/A   Clear
9:35 PM 80.8 °F 82.2 °F 63.5 °F 56% 29.86 in 10.0 mi SE 12.7 mph - N/A   Clear
9:55 PM 79.5 °F - 63.9 °F 59% 29.86 in 10.0 mi SE 12.7 mph - N/A   Clear
10:15 PM 79.2 °F - 64.4 °F 60% 29.86 in 10.0 mi SE 12.7 mph - N/A   Clear
10:35 PM 78.3 °F - 64.6 °F 63% 29.87 in 10.0 mi SE 13.8 mph - N/A   Clear
10:55 PM 77.9 °F - 64.8 °F 64% 29.86 in 10.0 mi SE 15.0 mph - N/A   Clear
11:15 PM 77.0 °F - 64.8 °F 66% 29.87 in 10.0 mi SE 13.8 mph - N/A   Clear
11:35 PM 76.5 °F - 64.8 °F 67% 29.87 in 10.0 mi SE 13.8 mph - N/A   Clear
11:55 PM 76.1 °F - 64.6 °F 67% 29.87 in 10.0 mi SE 12.7 mph - N/A   Clear